Back to catalog

FENGYUN 1C DEB

LostSSO
NORAD 36190·DEBRIS·🇨🇳 China

Launched May 10, 1999 from Taiyuan Satellite Launch Center

Loading…

Next Passes (next 24 hours)

TLE

StaleSource: Space-Track

Epoch: Apr 24, 2023, 03:57 UTC

1 36190U 99025DTP 23114.16459767  .00033240  00000-0  13267-1 0  9992
2 36190  98.7221 192.7631 0049900 161.2788 229.3450 14.27654658510148

Track FENGYUN 1C DEB in real time with AllMySat

Download on the App Store